Las Vegas, NV

3:53 PM PST on January 19, 2017 (GMT -0800)
McCarran International

Weather History for KLAS - November, 2012

Change the Weather History Date:

Sunday, November 11, 2012

  Actual Average Record
Temperature  
Mean Temperature 47 °F 58 °F  
Max Temperature 54 °F 69 °F 85 °F (1973)
Min Temperature 39 °F 48 °F 24 °F (1950)
Degree Days  
Heating Degree Days 18 7  
Month to date heating degree days 45 59  
Since 1 July heating degree days 64 98  
Cooling Degree Days 0 0  
Month to date cooling degree days 27 10  
Year to date cooling degree days 4031 3566  
Moisture  
Dew Point 15 °F    
Average Humidity 29    
Maximum Humidity 39    
Minimum Humidity 18    
Precipitation  
Precipitation 0.00 in 0.02 in 0.66 in (1958)
Month to date precipitation T 0.13  
Year to date precipitation 4.82 3.46  
Snow  
Snow 0.00 in 0.00 in 0.00 in ()
Month to date snowfall 0.0 0.0  
Since 1 July snowfall T 0.0  
Since 1 September snowfall T 0.0  
Snow Depth 0.00 in    
Sea Level Pressure  
Sea Level Pressure 30.28 in    
Wind  
Wind Speed 6 mph (SSW)    
Max Wind Speed 18 mph    
Max Gust Speed 23 mph    
Visibility 10 miles    
Events      
T = Trace of Precipitation, MM = Missing Value Source: NWS Daily Summary

Daily Weather History Graph

Daily Weather History Graph

Search for Another Location

Airport or City:

Trip Planner

Search our weather history database for the weather conditions in past years. The results will help you decide how hot, cold, wet, or windy it might be!

Date:

Astronomy

Nov. 11, 2012 Rise Set
Actual Time 6:13 AM PST 4:35 PM PST
Civil Twilight 5:46 AM PST 5:02 PM PST
Nautical Twilight 5:15 AM PST 5:33 PM PST
Astronomical Twilight 4:45 AM PST 6:03 PM PST
Moon 3:36 AM PST (11/11) 2:58 PM PST (11/11)
Length of Visible Light 11h 15m
Length of Day
10h 21m
Waning Crescent, 6% of the Moon is Illuminated
Nov 11
Waning Crescent
Nov 13
New
Nov 20
First Quarter
Nov 28
Full
Dec 6
Last Quarter

Hourly Weather History & Observations

Time (PST) Temp. Windchill Dew Point Humidity Pressure Visibility Wind Dir Wind Speed Gust Speed Precip Events Conditions
12:56 AM 42.1 °F 37.7 °F 19.9 °F 41% 30.11 in 10.0 mi SSE 6.9 mph - N/A   Clear
1:56 AM 44.1 °F 37.4 °F 15.1 °F 31% 30.12 in 10.0 mi NNW 13.8 mph - N/A   Clear
2:56 AM 45.0 °F 38.2 °F 12.9 °F 27% 30.11 in 10.0 mi NW 15.0 mph - N/A   Clear
3:56 AM 42.1 °F 38.4 °F 15.1 °F 34% 30.15 in 10.0 mi SW 5.8 mph - N/A   Clear
4:56 AM 41.0 °F 37.1 °F 15.1 °F 35% 30.19 in 10.0 mi SSW 5.8 mph - N/A   Clear
5:56 AM 41.0 °F 39.0 °F 14.0 °F 33% 30.22 in 10.0 mi NE 3.5 mph - N/A   Clear
6:56 AM 39.0 °F 33.4 °F 16.0 °F 39% 30.26 in 10.0 mi SSW 8.1 mph - N/A   Clear
7:56 AM 43.0 °F 38.8 °F 15.1 °F 32% 30.29 in 10.0 mi North 6.9 mph - N/A   Clear
8:56 AM 48.0 °F - 14.0 °F 26% 30.30 in 10.0 mi North 12.7 mph 17.3 mph N/A   Clear
9:56 AM 48.0 °F - 15.1 °F 27% 30.32 in 10.0 mi Variable 3.5 mph - N/A   Clear
10:56 AM 50.0 °F - 15.1 °F 25% 30.32 in 10.0 mi ESE 5.8 mph - N/A   Partly Cloudy
11:56 AM 51.1 °F - 15.1 °F 24% 30.31 in 10.0 mi Variable 6.9 mph - N/A   Partly Cloudy
12:56 PM 51.1 °F - 14.0 °F 23% 30.30 in 10.0 mi SSE 5.8 mph - N/A   Partly Cloudy
1:56 PM 53.1 °F - 12.0 °F 20% 30.29 in 10.0 mi Calm Calm - N/A   Partly Cloudy
2:56 PM 53.1 °F - 10.9 °F 19% 30.30 in 10.0 mi Variable 3.5 mph - N/A   Partly Cloudy
3:56 PM 53.1 °F - 12.0 °F 20% 30.30 in 10.0 mi Calm Calm - N/A   Scattered Clouds
4:56 PM 51.1 °F - 12.9 °F 22% 30.31 in 10.0 mi South 3.5 mph - N/A   Scattered Clouds
5:56 PM 50.0 °F - 12.9 °F 23% 30.34 in 10.0 mi SSW 4.6 mph - N/A   Scattered Clouds
6:56 PM 48.0 °F - 15.1 °F 27% 30.35 in 10.0 mi SSW 4.6 mph - N/A   Scattered Clouds
7:56 PM 46.0 °F 43.1 °F 17.1 °F 31% 30.36 in 10.0 mi WSW 5.8 mph - N/A   Clear
8:56 PM 45.0 °F 41.2 °F 17.1 °F 33% 30.36 in 10.0 mi SSW 6.9 mph - N/A   Clear
9:56 PM 44.1 °F 40.1 °F 17.1 °F 34% 30.39 in 10.0 mi SW 6.9 mph - N/A   Clear
10:56 PM 43.0 °F 38.2 °F 15.1 °F 32% 30.39 in 10.0 mi SSW 8.1 mph - N/A   Partly Cloudy
11:56 PM 41.0 °F 36.4 °F 15.1 °F 35% 30.39 in 10.0 mi SSW 6.9 mph - N/A   Partly Cloudy